Погода в Альбитуе

Россия / Забайкальский край     50°08′19″N   108°13′51″E
темп.,
°C
ветер,
м/с
пор.,
м/с
влажн.,
%
обл.,
%
осадки,
мм/ч
давл.,
гПа
погр.,
м
17 июня, чт
чт1700:00+3зюз129699 0.5 101081
03:00+4зсз139621 0.7 1011184
06:00+2зюз2298100 0.0 101266
09:00+3зюз2398100 1.3 1013260
12:00+6юз2797100 0.0 1012481
15:00+14сз496442 0.5 10081626
18:00+16сз612418 0.3 10072392
21:00+12сз512643 0.4 10081290
18 июня, пт
пт1800:00+7з36800 0.0 1009199
03:00+6з378716 0.0 1008214
06:00+6зюз27884 0.0 1008245
09:00+14зсз6155344 0.0 10041642
12:00+17сз814419 0.0 10032238
15:00+19сз7113155 0.0 10022996
18:00+18сз6123890 0.0 10022607
21:00+12ссв1273100 0.1 100440
19 июня, сб
сб1900:00+8зсз218494 0.0 100513
03:00+7з228092 0.0 100527
06:00+7з22835 0.0 100621
09:00+15з155281 0.0 1004717
12:00+19ссз473395 0.0 10032444
15:00+21ссз472863 0.0 10022955
18:00+21с47305 0.0 10012734
21:00+15с22605 0.0 100314
20 июня, вс
вс2000:00+10с22740 0.0 100515
03:00+9с11800 0.0 100610
06:00+7ссв11889 0.0 100811
09:00+15в12605 0.0 1007352
12:00+20в22428 0.0 10061463
15:00+22в333781 0.0 10042119
18:00+22в43395 0.0 10041301
21:00+17св11641 0.0 100412
21 июня, пн
пн2100:00+12св117395 0.0 100611
03:00+11св118299 0.0 100712
06:00+9всв1190100 0.0 100817
09:00+14вюв127599 0.3 1008240
12:00+20ююв1255100 0.1 1007738
15:00+20ююз3464100 0.8 1007969
18:00+15в119190 1.4 1008162
21:00+15св239680 2.3 1008105